Selinsgrove, PA

12:51 AM EST on December 06, 2019 (GMT -0500)
Penn Valley

Weather History for KSEG - October, 2019

Change the Weather History Date:

Wednesday, October 23, 2019

  Actual Average (WUND) Record (WUND)
Temperature  
Mean Temperature 50 °F -  
Max Temperature 64 °F - - (-1)
Min Temperature 37 °F - - (-1)
Degree Days  
Heating Degree Days 15    
Moisture  
Dew Point 43 °F    
Average Humidity 82    
Maximum Humidity 100    
Minimum Humidity 31    
Precipitation  
Precipitation 0.00 in - - ()
Sea Level Pressure  
Sea Level Pressure 30.00 in    
Wind  
Wind Speed 2 mph (SW)    
Max Wind Speed 9 mph    
Max Gust Speed -    
Visibility 5 miles    
Events Fog    
Averages and records for this station are not official NWS values.
T = Trace of Precipitation, MM = Missing Value Source: NWS Daily Summary

Daily Weather History Graph

Daily Weather History Graph

Search for Another Location

Airport or City:

Astronomy

Oct. 23, 2019 Rise Set
Actual Time 7:27 AM EDT 6:15 PM EDT
Civil Twilight 6:59 AM EDT 6:43 PM EDT
Nautical Twilight 6:27 AM EDT 7:15 PM EDT
Astronomical Twilight 5:55 AM EDT 7:47 PM EDT
Moon 1:40 AM EDT (10/23) 4:07 PM EDT (10/23)
Length of Visible Light 11h 44m
Length of Day
10h 48m
Waning Crescent, 27% of the Moon is Illuminated
Oct 23
Waning Crescent
Oct 27
New
Nov 4
First Quarter
Nov 12
Full
Nov 19
Last Quarter

Hourly Weather History & Observations

Time (EDT) Temp. Windchill Dew Point Humidity Pressure Visibility Wind Dir Wind Speed Gust Speed Precip Events Conditions
12:04 AM 54.0 °F - 54.0 °F 100% 29.85 in 1.8 mi SSW 3.5 mph - N/A   Overcast
12:20 AM 53.1 °F - 53.1 °F 100% 29.85 in 1.0 mi Calm Calm - N/A   Overcast
12:29 AM 53.1 °F - 53.1 °F 100% 29.85 in 0.8 mi South 3.5 mph - N/A   Mist
12:53 AM 52.0 °F - 52.0 °F 100% 29.85 in 0.2 mi SW 3.5 mph - N/A Fog Fog
1:53 AM 52.0 °F - 52.0 °F 100% 29.86 in 0.5 mi Calm Calm - N/A Fog Fog
2:53 AM 51.1 °F - 51.1 °F 100% 29.87 in 0.5 mi Calm Calm - N/A Fog Fog
3:53 AM 50.0 °F - 50.0 °F 100% 29.88 in 0.5 mi Calm Calm - N/A Fog Fog
4:53 AM 48.9 °F - 48.0 °F 97% 29.91 in 0.5 mi Calm Calm - N/A Fog Fog
5:53 AM 46.9 °F - 46.9 °F 100% 29.93 in 0.2 mi Calm Calm - N/A Fog Fog
6:53 AM 45.0 °F - 44.1 °F 97% 29.96 in 0.2 mi Calm Calm - N/A Fog Fog
7:36 AM 43.0 °F - 43.0 °F 100% 29.96 in 1.2 mi Calm Calm - N/A   Overcast
7:51 AM 42.8 °F - 42.8 °F 100% 29.97 in 0.8 mi Calm Calm - N/A   Overcast
7:53 AM 43.0 °F - 43.0 °F 100% 29.98 in 0.5 mi Calm Calm - N/A Fog Fog
8:41 AM 45.0 °F - 45.0 °F 100% 29.99 in 1.2 mi Calm Calm - N/A   Overcast
8:44 AM 45.0 °F - 45.0 °F 100% 29.99 in 3.0 mi Calm Calm - N/A   Overcast
8:53 AM 46.9 °F - 46.0 °F 97% 30.00 in 5.0 mi Calm Calm - N/A   Mostly Cloudy
9:02 AM 46.9 °F - 46.0 °F 97% 30.00 in 2.0 mi Calm Calm - N/A   Scattered Clouds
9:11 AM 46.9 °F - 46.9 °F 100% 30.00 in 5.0 mi Calm Calm - N/A   Scattered Clouds
9:53 AM 50.0 °F - 48.0 °F 93% 30.01 in 10.0 mi Calm Calm - N/A   Clear
10:53 AM 57.9 °F - 45.0 °F 62% 30.01 in 10.0 mi Variable 4.6 mph - N/A   Clear
11:53 AM 59.0 °F - 41.0 °F 51% 30.02 in 10.0 mi SW 9.2 mph - N/A   Mostly Cloudy
12:53 PM 61.0 °F - 39.9 °F 46% 30.02 in 10.0 mi North - - N/A   Overcast
1:53 PM 63.0 °F - 37.9 °F 40% 30.01 in 10.0 mi Variable 5.8 mph - N/A   Scattered Clouds
2:53 PM 63.0 °F - 34.0 °F 34% 30.02 in 10.0 mi WSW 8.1 mph - N/A   Partly Cloudy
3:53 PM 63.0 °F - 33.1 °F 33% 30.03 in 10.0 mi Variable 5.8 mph - N/A   Clear
4:53 PM 61.0 °F - 30.0 °F 31% 30.06 in 10.0 mi Variable 6.9 mph - N/A   Clear
5:53 PM 57.0 °F - 33.1 °F 40% 30.09 in 10.0 mi Calm Calm - N/A   Clear
6:53 PM 52.0 °F - 35.1 °F 53% 30.12 in 10.0 mi Calm Calm - N/A   Clear
7:53 PM 46.9 °F - 37.0 °F 68% 30.16 in 10.0 mi Calm Calm - N/A   Clear
8:53 PM 42.1 °F - 39.0 °F 89% 30.18 in 10.0 mi Calm Calm - N/A   Clear
9:53 PM 39.9 °F 37.8 °F 37.9 °F 93% 30.19 in 10.0 mi NW 3.5 mph - N/A   Clear
10:53 PM 37.9 °F - 36.0 °F 93% 30.22 in 10.0 mi Calm Calm - N/A   Clear
11:53 PM 37.0 °F - 36.0 °F 96% 30.22 in 10.0 mi Calm Calm - N/A   Clear